Regional Weather Roundup
Issued by NWS Goodland, KS

Home | Current Version | Previous Version | Text Only | Print | Product List | Glossary Off
Versions: 1 2 3 4 5 6 7 8 9 10 11 12 13 14 15 16 17 18 19 20 21 22 23 24 25 26 27 28 29 30 31 32 33 34 35 36 37 38 39 40 41 42 43 44 45 46 47 48 49 50

000
ASUS43 KGLD 010808
RWRGLD

GOODLAND FORECAST AREA HOURLY WEATHER ROUNDUP
NATIONAL WEATHER SERVICE GOODLAND KS
200 AM MDT TUE SEP 01 2015

...OFFICIAL OBSERVATIONS...

CITY           SKY/WX    TMP DP  RH WIND       PRES   REMARKS
GOODLAND KS    CLOUDY    64  62  93 NW5       29.98S
HILL CITY KS   PTCLDY    77  54  44 SW12      29.95R
IMPERIAL NEB   LGT RAIN  67  62  84 E7        29.97F
MCCOOK NEB     CLOUDY    75  61  61 W15       29.91F
AKRON CO       PTCLDY    59  56  89 W7        30.06F
BURLINGTON CO  MOCLDY    62  59  90 NW10      30.04S
LIMON CO       MOCLDY    54  53  97 NW5       30.12F
$$

...UNOFFICIAL OBSERVATIONS...

CITY           SKY/WX    TMP DP  RH WIND       PRES   REMARKS
COLBY KS       MOCLDY    72  63  73 NE9       29.96F
GOVE KS          N/A     70  32  24 MISG        N/A
LENORA KS        N/A     72  32  23 MISG        N/A
NORTON KS      CLEAR     73  50  43 S8        29.93S
SHARON SPRINGS   N/A     69  60  73 CALM        N/A
TRIBUNE KS     CLOUDY    70  61  73 E6        30.02F
KIT CARSON CO    N/A     64  60  87 MISG        N/A
YUMA CO          N/A     61  59  92 W7          N/A
$$



USA.gov is the U.S. government's official web portal to all federal, state and local government web resources and services.